Tracking 29892 objects as of 21-Nov-2024
HD Live streaming from Space Station
objects crossing your sky now

METEOR 2-7 DEB

Track METEOR 2-7 DEB now!
10-day predictions


NORAD ID: 28388
Int'l Code: 1981-043E
Perigee: 735.3 km
Apogee: 768.5 km
Inclination: 81.3 °
Period: 99.7 minutes
Semi major axis: 7122 km
RCS: 0.0095 m2 (small)
Launch date: May 14, 1981
Source: Commonwealth of Independent States (former USSR) (CIS)
Launch site: PLESETSK MISSILE AND SPACE COMPLEX (PKMTR)

Note: This is SATELLITE DEBRIS
Your satellite tracking list
Your tracking list is empty




NASA's NSSDC Master Catalog

Two Line Element Set (TLE):
1 28388U 81043E   24322.54534609  .00004487  00000-0  13002-2 0  9995
2 28388  81.2650 169.1989 0023305 327.9566  32.0206 14.44179176564469
Source of the keplerian elements: AFSPC